GFSCGP_sfc_wetblb_132.txt.gz
Wetbulb
38.53 35.02 32.15 35.33 37.44 38.89 37.61 36.13 34.40 35.39 38.76 37.23 36.43 37.14 38.90 38.89 37.83 38.54 38.07 38.07 39.12 40.63 44.13 44.56 49.88 57.06 57.49 61.14 62.19 62.22 62.15 62.59 62.67 62.49 62.97 62.88 62.58 63.14 62.09 62.38 61.86 60.48 58.52 56.92
34.61 31.21 37.47 40.02 39.37 38.08 35.82 34.32 33.61 35.56 37.32 35.75 33.87 35.96 38.87 37.68 38.85 39.18 39.27 39.02 39.90 40.64 41.87 42.80 44.39 47.25 55.29 58.76 61.61 62.06 62.17 62.32 62.61 62.83 62.42 62.96 62.88 63.05 63.13 62.39 61.53 61.12 59.73 58.24
32.61 36.58 40.08 38.83 36.48 35.74 34.90 33.81 33.71 35.15 36.26 35.02 33.47 32.65 34.53 37.34 38.07 39.48 40.18 42.15 42.39 42.46 42.48 43.23 43.06 43.46 48.10 55.69 59.79 61.44 62.20 62.46 62.66 62.72 61.50 58.69 59.15 60.43 60.99 61.04 61.23 60.60 60.27 59.31
35.15 38.43 38.16 35.78 35.29 35.81 31.96 37.73 36.82 35.67 33.33 29.76 32.33 24.66 30.89 34.23 36.33 37.21 40.52 41.86 42.71 41.65 41.36 42.54 42.91 42.30 44.00 50.99 54.88 59.80 62.05 62.41 62.50 62.35 60.99 60.51 60.20 59.38 60.25 60.03 61.34 61.66 60.54 59.78
33.58 34.89 34.62 34.47 36.05 37.73 34.79 37.84 36.71 35.36 31.74 30.03 28.18 26.27 30.52 33.54 34.98 37.82 39.40 40.40 42.09 42.84 40.91 41.95 42.90 41.94 41.12 44.66 47.75 50.64 54.98 58.67 61.33 61.74 61.53 60.59 59.96 60.10 58.03 57.79 58.30 58.79 60.87 60.26
37.17 38.13 38.03 37.62 37.57 38.50 37.82 35.23 33.45 31.58 30.03 24.88 28.98 28.60 29.10 33.05 36.80 37.75 37.83 39.06 39.58 38.64 38.73 39.18 41.00 42.52 42.95 44.56 44.64 44.90 44.65 45.87 50.34 59.17 61.19 60.42 60.02 57.92 57.99 59.57 59.92 60.03 60.56 60.88
32.61 34.49 35.67 37.76 35.09 35.42 34.52 31.41 23.24 23.39 22.97 22.77 28.48 26.77 32.91 35.45 36.80 36.88 37.90 37.58 36.15 37.07 38.76 40.12 41.42 41.67 43.92 45.41 46.78 47.40 46.75 45.07 43.96 44.71 51.77 58.74 59.49 58.49 59.38 59.99 60.24 59.56 59.23 58.47
29.41 26.70 34.24 36.88 35.89 33.33 33.36 32.91 25.93 19.55 19.66 23.00 27.27 24.48 31.53 37.45 38.52 38.05 37.82 36.79 37.87 38.59 39.44 40.33 41.33 43.08 45.24 45.96 46.33 47.15 47.21 46.65 44.43 42.71 43.76 51.28 57.01 59.05 58.68 58.50 58.39 58.91 59.41 59.09
28.57 28.64 35.61 36.76 37.97 39.06 33.17 30.11 34.37 26.00 17.47 21.64 25.04 28.64 35.32 36.85 36.67 34.24 35.72 36.26 37.38 38.63 39.24 40.52 41.84 43.09 44.19 46.12 46.62 47.12 47.13 47.44 47.20 46.40 45.22 47.71 51.08 54.86 56.96 57.41 56.32 58.34 57.88 55.34
33.77 28.87 34.29 35.58 38.08 37.25 34.93 37.56 29.84 26.35 17.19 17.04 23.21 24.69 28.95 33.22 35.56 36.00 35.60 37.09 37.61 37.73 39.26 40.02 41.09 41.99 42.98 44.79 46.44 46.72 46.90 47.23 47.17 47.77 48.68 49.31 50.16 51.35 52.58 53.01 53.07 54.19 52.82 53.03
35.87 33.29 30.72 34.47 33.37 32.30 32.23 31.57 31.54 31.71 27.09 21.74 18.04 24.51 32.11 35.56 37.30 35.67 36.48 36.00 36.80 38.38 39.37 39.56 40.16 41.41 42.43 43.14 45.07 45.65 46.37 46.56 46.20 46.45 46.24 47.23 47.84 49.27 50.19 50.74 51.82 51.44 50.54 50.95
36.79 33.62 27.43 30.52 34.04 35.87 35.78 34.23 34.58 27.00 23.62 24.21 24.29 26.64 34.86 34.94 36.15 36.76 37.19 36.76 36.50 37.11 38.60 39.29 39.77 40.06 40.53 41.89 44.08 44.85 45.31 46.01 46.49 46.38 45.97 46.15 46.60 47.15 47.75 49.58 49.96 49.97 49.36 48.64
37.35 28.84 21.44 27.42 32.00 33.10 31.60 33.06 34.62 32.29 28.42 23.58 21.46 28.00 33.75 34.58 33.96 35.56 36.42 35.84 36.64 36.05 37.66 38.74 39.08 39.56 39.85 40.46 42.10 43.77 44.08 44.94 46.96 46.97 47.39 48.87 48.60 47.86 48.49 47.82 47.03 45.92 44.77 43.48
40.77 31.52 28.65 25.47 28.28 31.97 29.58 32.13 33.83 33.40 27.15 27.49 28.79 31.70 31.50 33.42 34.00 35.94 36.41 37.29 37.32 37.80 38.42 38.21 38.18 38.72 39.49 40.42 40.86 41.64 42.89 44.32 48.87 49.04 48.61 48.29 47.19 46.26 45.24 44.05 43.22 42.34 41.68 40.67
37.85 24.40 29.20 30.06 31.23 33.03 31.17 31.42 33.55 31.46 33.50 27.97 32.74 30.75 34.94 33.94 34.86 34.89 36.20 37.11 37.89 38.32 38.03 38.04 38.06 38.38 38.98 39.37 39.89 40.71 41.32 42.46 45.35 45.91 44.38 43.23 42.69 42.11 41.11 39.75 38.63 37.03 35.64 35.03
37.12 29.11 30.16 25.25 30.28 30.38 27.19 31.89 33.34 34.14 34.06 33.68 33.60 31.61 36.24 36.52 35.40 34.06 36.56 37.46 37.93 38.16 38.46 38.22 38.44 38.93 39.11 39.53 39.39 40.03 40.32 40.79 41.03 40.23 39.72 37.88 38.07 36.17 34.86 33.63 33.41 33.40 33.34 33.44
33.48 28.24 27.28 22.38 29.20 28.70 24.98 30.43 31.42 33.51 35.28 35.16 30.56 36.25 36.27 33.06 35.29 36.04 36.94 36.81 38.13 39.09 39.38 38.47 39.60 40.08 39.82 40.15 40.53 40.05 39.26 38.17 37.78 35.76 34.22 33.47 32.98 32.97 32.81 32.79 32.91 32.48 32.60 33.03
32.76 32.45 27.94 23.74 25.63 20.57 31.13 35.95 35.68 33.78 34.96 36.31 36.64 37.43 35.44 36.36 36.36 37.38 38.05 37.57 37.66 38.75 38.79 38.53 39.18 39.88 39.61 38.92 38.46 37.75 36.81 35.48 33.93 32.85 32.47 32.56 32.54 32.20 31.94 31.36 31.25 30.65 29.69 30.36
34.27 31.54 23.83 23.55 13.54 25.32 31.80 30.36 30.41 30.87 32.78 35.91 35.68 37.83 38.13 35.48 34.36 37.76 36.93 37.73 39.71 40.33 41.54 40.77 40.65 39.83 38.19 38.44 37.00 35.33 33.84 32.62 32.71 32.05 31.83 31.75 31.18 30.14 30.67 30.61 29.77 29.23 29.41 28.82
32.02 34.19 31.95 12.53 17.94 17.09 25.70 31.60 35.12 34.07 29.19 35.92 37.83 38.51 38.29 34.19 32.29 39.11 38.50 37.24 37.13 38.58 38.62 38.33 38.16 37.28 37.78 35.21 34.66 34.21 32.43 32.07 31.46 31.23 31.13 29.90 28.79 29.70 29.31 28.78 29.23 27.93 28.12 28.95
25.45 24.75 28.52 16.57 23.48 22.34 29.61 32.14 36.04 25.66 28.69 32.39 35.08 37.66 36.41 33.68 39.03 37.05 36.96 36.44 36.27 36.72 36.94 36.07 36.09 36.90 36.39 33.81 34.10 32.39 30.86 30.68 30.02 29.29 27.50 26.89 27.05 28.18 28.24 27.49 27.61 28.63 28.36 27.00
26.58 27.06 27.36 23.83 23.90 23.48 31.14 31.10 32.32 33.76 31.82 34.39 34.77 35.40 34.74 34.07 34.07 34.45 33.98 33.82 34.40 33.55 32.41 32.23 31.84 31.48 31.26 32.57 33.22 30.59 30.28 28.87 28.13 27.19 25.99 24.63 24.96 26.62 27.38 28.04 27.98 27.05 26.97 26.43
27.43 31.00 26.63 31.27 29.95 31.75 31.31 30.87 33.57 33.36 33.64 33.08 33.35 33.06 34.40 33.41 32.88 33.29 32.78 32.15 31.07 30.61 30.64 30.55 30.29 28.90 28.55 29.49 30.18 29.33 26.82 27.20 25.59 24.37 22.72 22.96 26.79 27.70 27.49 27.67 26.44 25.77 24.37 24.89
29.36 29.69 29.14 30.38 30.80 31.22 33.77 31.95 31.96 32.20 32.47 33.05 32.70 32.59 33.07 32.94 32.10 31.12 31.58 31.11 30.11 29.10 28.57 27.24 27.93 27.05 25.03 23.83 26.05 26.56 25.98 24.64 24.10 23.56 23.17 23.12 23.59 25.36 25.77 25.71 25.25 21.32 20.30 17.92
29.29 31.68 26.47 25.94 28.07 29.89 30.47 32.08 32.01 30.80 30.90 32.09 31.97 32.35 31.34 31.20 30.20 30.86 30.37 29.63 29.00 27.68 24.87 24.67 25.92 25.82 22.82 21.55 20.96 22.11 22.60 23.74 23.48 22.80 23.81 24.77 24.74 25.10 22.62 22.80 19.26 21.99 15.66 17.57
28.96 29.11 31.57 30.61 30.34 31.34 30.85 33.30 31.65 31.20 31.40 31.63 31.44 30.75 30.69 30.65 30.60 28.80 28.96 28.47 26.59 23.35 21.35 21.76 20.40 21.29 18.79 18.45 17.47 16.53 17.70 23.11 23.40 23.92 23.18 22.62 21.92 20.84 20.41 21.34 20.97 28.02 27.30 29.22

GFSCGP_sfc_wetblb_135.txt.gz
Wetbulb
39.89 34.49 32.74 33.73 36.26 37.08 36.18 35.40 34.59 35.59 37.56 35.59 35.62 37.05 38.41 37.77 36.49 38.93 39.77 39.66 41.23 43.47 49.94 48.66 54.53 57.87 58.09 59.23 60.97 61.30 60.95 61.80 61.62 61.65 61.66 62.69 62.33 62.15 61.57 62.17 61.95 60.87 59.70 57.86
36.11 31.26 36.71 39.52 38.71 36.83 34.58 33.23 31.91 35.25 36.92 35.11 32.73 35.45 37.56 36.97 38.54 39.22 40.11 38.45 40.66 41.18 41.40 42.08 41.83 51.67 56.66 59.01 60.53 61.11 61.44 61.62 61.61 62.40 61.63 61.60 62.40 62.76 63.06 62.32 61.80 61.37 59.94 58.49
31.48 35.30 39.49 37.84 35.28 34.89 33.23 32.43 31.89 34.43 35.86 35.22 32.69 31.88 33.74 36.18 36.54 39.04 39.75 41.12 42.16 42.43 42.68 42.11 41.57 42.15 52.16 56.41 58.63 60.89 61.36 61.65 61.97 62.45 60.76 58.04 59.65 60.58 60.98 60.98 61.18 60.75 60.27 59.50
33.67 37.55 36.55 33.59 33.56 34.62 30.44 36.03 35.70 34.90 32.61 29.30 33.12 26.61 32.32 32.56 35.16 35.68 39.04 40.84 42.53 42.71 40.98 41.40 41.34 40.57 43.05 52.49 56.30 59.98 61.17 61.51 61.81 62.14 60.79 60.04 59.94 59.44 59.96 58.78 59.36 59.33 59.42 59.75
33.35 33.71 33.25 32.73 34.08 36.16 33.81 36.16 35.20 33.80 30.68 27.69 27.98 27.59 30.82 30.10 32.98 36.14 38.15 40.20 40.55 41.02 40.25 40.14 41.31 41.86 40.14 43.45 51.28 55.24 58.98 60.58 61.17 61.49 61.40 60.39 59.82 60.24 57.84 56.78 57.47 58.10 58.64 58.62
36.02 37.38 36.96 36.68 36.58 37.49 36.51 33.96 32.59 30.02 28.80 24.22 28.97 28.01 28.65 31.07 35.45 36.42 37.59 38.00 38.35 37.82 38.39 38.54 39.57 41.15 41.08 41.84 45.52 48.93 54.07 56.08 57.88 60.53 60.73 59.86 60.28 58.21 56.71 56.35 58.84 59.90 60.52 60.49
31.09 32.54 33.86 36.32 33.70 33.69 33.18 30.90 22.85 22.94 22.28 22.77 26.43 25.22 32.51 35.77 37.24 37.11 37.71 38.19 36.87 35.84 36.38 37.43 40.35 41.02 42.48 43.35 43.85 44.04 44.72 45.19 48.34 55.96 60.23 60.28 59.73 59.07 57.88 57.66 59.06 59.60 59.24 58.40
29.72 25.96 33.19 35.79 33.80 31.37 30.91 31.82 23.60 17.73 18.57 22.89 26.47 23.88 30.78 38.42 39.51 37.85 37.63 36.87 37.73 38.36 38.86 38.82 40.15 41.26 43.55 44.78 45.34 46.45 46.22 44.94 43.56 43.11 47.64 55.95 59.59 60.01 59.51 59.23 59.65 57.68 57.38 58.98
28.06 28.09 34.49 36.20 37.20 37.58 31.20 29.08 32.69 25.10 16.34 20.28 24.20 28.04 34.63 36.57 36.61 35.68 36.21 35.98 37.85 38.59 39.18 39.90 40.50 42.14 43.76 45.28 45.79 46.36 46.15 45.85 44.95 42.75 41.72 42.42 48.76 55.55 58.07 57.05 57.50 58.94 57.67 55.77
33.51 28.90 32.91 34.99 37.43 36.37 34.68 37.06 29.85 25.12 16.60 16.79 22.60 24.22 28.09 32.95 35.48 35.75 35.85 36.12 36.17 36.30 38.71 39.32 40.73 41.86 42.83 44.46 45.64 45.98 46.27 46.52 46.55 46.77 45.50 44.93 45.69 49.22 53.04 53.51 53.54 53.29 54.51 52.62
34.24 33.14 30.12 33.97 31.91 31.92 31.76 29.74 30.00 30.43 25.94 20.50 16.99 24.58 31.81 35.72 36.17 36.83 36.71 36.12 36.82 38.18 38.45 38.87 39.88 40.79 41.50 42.53 44.07 44.75 45.51 46.05 46.14 46.14 45.91 46.96 48.23 48.64 49.53 51.74 52.82 52.84 51.54 51.92
36.26 31.74 26.85 30.44 32.82 34.90 34.50 33.07 34.00 29.29 23.46 24.10 23.81 26.11 33.06 34.47 35.46 35.82 36.60 36.47 36.55 37.61 38.06 38.58 39.49 40.13 40.47 41.88 43.53 44.38 44.69 45.11 45.17 45.36 45.32 45.65 46.40 48.65 50.22 50.80 50.58 50.47 49.53 48.86
36.36 29.19 21.54 26.26 31.71 32.64 30.59 31.65 33.25 30.54 27.91 22.33 21.56 25.34 33.53 33.79 35.30 34.10 36.17 36.03 35.92 35.60 36.71 38.00 38.17 38.65 39.43 40.39 42.17 43.04 43.12 44.02 45.63 45.56 48.26 48.60 48.37 48.65 48.81 48.43 47.58 46.73 45.99 44.91
39.94 30.80 30.74 25.94 29.33 31.44 28.90 30.92 32.04 32.10 25.19 25.94 27.52 28.64 31.34 34.29 34.58 35.01 35.29 35.26 35.11 35.39 36.63 37.55 38.28 38.86 39.28 39.63 40.42 42.38 43.22 44.17 45.88 46.29 48.23 48.42 48.08 47.38 46.30 45.05 43.90 43.23 42.67 41.67
36.33 25.84 28.28 28.21 30.12 32.82 31.11 31.24 32.52 31.03 33.76 28.76 32.98 31.36 33.80 35.48 35.79 36.06 36.77 36.81 36.87 37.33 37.02 37.35 37.71 37.98 38.52 39.13 39.81 41.02 42.31 42.82 45.79 46.53 45.43 43.81 42.67 42.02 40.89 40.43 40.16 39.21 38.44 37.80
36.00 25.62 29.37 24.99 29.47 30.33 27.41 32.08 33.68 34.17 34.22 33.04 33.23 31.27 35.82 37.97 34.59 33.39 35.45 36.37 37.30 37.44 37.92 38.00 37.75 37.92 38.19 38.81 39.11 39.55 40.07 41.59 44.80 45.20 43.35 41.26 40.60 38.59 37.50 37.00 36.21 35.79 35.00 33.49
32.19 27.69 24.10 25.86 28.56 29.59 25.77 30.30 31.48 32.97 35.07 34.91 30.10 36.01 36.85 33.95 33.70 34.88 35.42 35.29 36.95 37.97 38.45 38.25 38.59 38.93 38.85 39.57 40.18 39.41 39.25 39.14 39.70 41.02 37.73 37.22 36.68 36.07 35.70 34.68 33.25 32.51 31.84 31.28
33.08 32.37 29.91 24.08 26.84 20.24 30.27 35.11 35.81 33.36 35.00 36.74 37.05 37.40 35.73 35.90 36.88 37.00 37.56 37.84 36.73 37.68 38.65 38.04 38.12 38.83 39.28 38.49 38.71 38.19 37.33 36.54 35.56 34.89 33.71 33.05 33.14 32.81 32.05 30.68 30.21 29.32 28.18 28.51
37.55 34.34 25.06 25.33 26.77 28.20 30.74 31.55 30.63 30.35 32.94 36.96 36.21 38.66 35.99 35.28 33.20 35.14 36.50 37.50 39.90 39.05 39.82 40.42 39.72 38.46 37.32 38.33 37.23 35.97 34.46 34.11 33.57 33.04 32.51 32.15 30.86 29.49 28.87 28.99 28.59 26.66 27.75 27.27
32.55 36.36 31.59 21.18 19.51 18.91 27.39 35.29 34.51 34.62 28.44 37.00 37.54 37.89 37.25 33.49 31.69 37.81 37.67 37.19 36.72 36.89 36.89 37.49 37.21 36.74 36.87 36.15 36.21 35.59 34.23 33.62 33.33 32.26 31.95 30.25 30.06 30.67 30.68 30.02 28.26 26.80 26.62 28.36
28.57 30.57 28.61 22.30 24.01 23.54 30.41 31.99 35.71 26.92 28.83 32.95 34.70 37.29 35.49 34.22 38.52 35.52 35.74 34.66 34.60 34.69 35.12 34.92 35.47 36.32 37.07 34.57 35.55 34.58 32.64 32.88 31.51 30.71 28.41 27.34 28.32 29.93 29.26 27.72 24.15 25.79 26.22 26.04
29.89 28.12 27.84 25.54 22.09 22.76 30.95 30.48 32.03 34.58 33.52 34.28 33.77 33.49 33.88 33.96 33.16 34.53 35.61 34.55 33.60 33.93 32.43 33.19 32.80 32.28 31.19 33.47 35.20 32.30 32.67 30.40 29.50 28.12 26.75 25.47 25.30 27.53 27.05 26.26 24.40 26.30 26.61 25.46
29.24 33.42 28.09 30.72 30.31 31.80 31.29 31.18 33.31 33.74 34.01 33.34 33.48 33.65 33.98 33.31 32.43 32.38 33.27 30.19 31.15 30.25 31.86 30.95 30.58 29.31 29.04 30.64 32.62 31.86 28.31 28.26 26.54 25.80 23.91 23.28 23.96 25.61 26.33 26.56 24.80 24.24 23.08 26.05
30.63 30.52 31.47 30.20 30.83 31.42 33.07 32.83 32.38 32.56 32.89 33.48 33.81 33.61 32.23 31.95 31.56 31.36 31.98 31.57 30.47 29.44 29.08 27.42 25.98 25.65 24.87 23.53 26.54 26.66 27.16 26.41 26.62 24.93 23.51 22.98 24.55 22.30 21.89 24.45 25.48 26.51 25.09 22.97
31.59 32.59 27.07 26.54 27.78 30.49 30.65 32.29 32.65 31.33 31.82 32.52 32.04 31.91 32.20 31.89 30.18 30.50 30.59 29.81 29.10 28.04 24.64 24.00 24.58 23.69 21.59 20.63 20.98 20.98 22.89 25.10 24.04 23.22 22.48 21.76 22.42 22.41 21.39 21.06 23.90 19.47 15.92 22.06
29.88 30.31 32.48 30.35 30.97 32.38 31.21 31.78 31.57 31.55 30.69 30.56 31.51 30.67 31.17 31.31 31.22 28.93 29.12 28.44 26.48 22.56 20.99 21.41 20.00 20.80 17.01 17.31 16.29 15.94 18.90 24.16 24.19 23.16 23.32 24.15 24.88 23.97 23.42 23.57 23.54 27.43 26.52 28.47

GFSCGP_sfc_wetblb_138.txt.gz
Wetbulb
39.95 37.77 33.90 33.04 35.21 37.60 36.92 33.49 32.50 34.59 38.25 35.45 34.41 35.51 39.57 37.15 35.16 36.67 38.88 39.94 44.38 49.52 54.87 54.52 56.59 57.72 58.12 59.29 60.15 60.26 60.38 60.48 61.46 60.37 60.30 59.45 59.85 61.68 62.00 62.37 61.95 61.20 60.02 58.43
35.71 30.61 35.35 38.34 36.50 36.76 34.85 31.90 31.91 34.04 35.45 35.55 33.04 34.88 38.81 36.19 37.31 37.92 38.48 38.63 40.35 43.44 43.93 46.26 45.84 53.47 56.30 58.68 60.01 60.56 60.64 60.90 61.02 61.71 61.38 60.15 60.15 60.35 61.77 62.19 62.04 61.74 60.36 59.17
34.22 34.43 38.64 37.23 34.32 33.51 31.04 30.89 30.89 33.34 33.59 33.25 31.03 31.07 34.61 35.95 35.59 37.51 38.46 39.53 40.35 42.28 43.83 44.56 41.26 42.63 49.63 56.15 57.68 59.80 60.84 60.94 61.42 61.89 59.60 57.65 58.23 58.31 59.88 60.76 61.13 61.23 60.89 59.79
33.64 36.99 36.73 33.45 32.84 34.02 29.63 34.85 35.18 33.09 31.44 27.93 31.57 26.65 31.05 33.94 34.82 34.60 37.33 38.43 41.27 42.62 42.09 42.62 40.70 39.62 40.84 50.44 55.92 58.43 59.78 60.51 61.01 61.26 60.12 59.66 59.86 58.93 59.67 58.32 58.90 58.91 58.98 58.56
32.77 33.39 33.22 32.75 33.67 36.23 33.32 35.35 34.02 31.69 29.25 26.14 25.71 25.78 30.66 30.57 32.19 35.25 37.01 38.90 41.43 43.54 42.86 39.91 39.77 40.47 40.43 42.47 50.07 55.69 58.63 59.73 60.36 60.71 61.15 60.15 59.61 59.83 58.35 56.69 56.98 57.41 57.56 58.63
34.38 35.85 36.08 35.38 35.22 36.55 35.78 33.37 31.07 27.90 27.20 23.39 27.74 26.77 26.59 29.99 35.06 36.99 38.28 39.03 38.98 38.58 38.87 39.15 38.75 38.91 38.94 39.09 43.28 51.15 56.67 58.77 59.28 60.28 60.78 60.02 59.70 58.81 56.85 55.51 57.05 57.59 59.35 59.66
30.98 31.61 33.35 35.84 32.43 32.23 32.42 29.99 22.69 22.05 20.79 22.38 25.30 24.85 32.93 34.68 36.52 38.32 38.61 37.37 37.50 37.60 37.79 36.72 36.24 38.51 39.25 41.04 41.97 46.22 52.19 55.34 58.33 59.60 59.96 59.81 59.98 60.14 58.70 57.49 57.88 58.38 59.10 58.76
29.00 26.65 32.40 35.13 33.55 30.58 30.60 30.91 23.56 16.89 17.72 21.75 25.05 23.82 30.15 36.39 40.38 38.20 37.04 36.19 36.21 38.26 38.97 38.09 37.68 39.20 41.38 42.62 43.39 43.96 45.90 49.07 51.93 58.58 59.91 60.54 60.43 60.31 59.65 58.08 58.07 58.58 58.78 57.86
29.14 27.76 32.82 35.16 36.13 37.59 30.72 27.72 32.66 24.55 13.38 18.75 23.43 26.34 32.29 36.73 35.91 36.45 36.01 35.51 36.29 38.00 38.92 38.74 38.69 40.12 42.69 44.26 44.95 45.41 45.02 44.71 43.92 44.45 46.29 50.82 55.84 59.07 59.69 59.29 59.42 59.96 58.75 56.40
32.64 28.00 32.60 34.64 36.47 35.25 33.37 36.19 29.29 25.10 15.61 14.86 21.33 22.97 26.73 31.45 34.60 35.45 36.00 35.54 35.64 36.99 38.76 38.63 39.51 41.09 42.69 43.70 44.97 45.15 45.23 45.23 45.09 44.23 42.58 41.64 41.91 46.38 54.17 56.64 56.47 56.16 55.09 53.06
34.02 31.41 28.72 33.52 32.27 30.30 31.01 31.08 29.58 30.71 25.82 19.84 15.61 23.75 29.97 35.32 34.13 35.51 35.77 36.16 36.09 37.09 38.10 38.71 39.76 41.01 41.82 43.09 44.59 45.19 45.67 46.00 45.49 45.36 45.29 45.26 47.20 44.89 47.39 53.64 54.23 53.59 52.55 53.02
34.25 31.21 25.95 28.67 33.39 34.62 34.56 33.81 34.40 29.12 22.40 22.98 22.59 23.94 32.34 31.71 33.50 35.21 35.67 36.48 36.53 36.72 37.85 38.71 39.41 40.11 40.38 41.89 43.57 44.52 44.37 44.74 44.99 45.13 45.14 47.40 49.04 49.89 51.06 51.66 51.67 51.57 50.29 49.68
35.45 28.97 22.89 26.61 31.43 31.99 30.97 30.44 34.23 30.49 27.90 23.86 20.99 25.99 32.84 31.12 33.92 33.69 34.71 36.25 35.98 35.05 35.87 37.08 37.71 38.78 39.68 40.50 42.03 42.72 42.92 43.82 44.55 44.76 47.99 48.37 48.19 49.37 49.73 49.21 48.45 47.89 47.13 46.22
40.20 30.74 30.07 26.27 28.72 30.67 29.16 30.11 31.21 31.50 25.20 25.91 27.43 28.02 29.91 34.78 33.78 34.82 35.80 35.48 35.28 35.10 35.09 36.25 37.18 38.06 38.76 39.40 40.09 41.35 41.97 43.04 44.71 47.16 48.16 48.32 48.36 48.07 47.52 46.35 45.46 44.85 44.46 43.52
37.30 30.46 27.83 28.16 29.18 31.68 30.57 30.62 31.55 31.43 33.70 29.25 33.01 30.48 34.51 33.33 35.21 37.47 35.82 36.45 36.88 36.89 35.99 35.97 36.86 37.69 38.21 38.33 38.40 40.25 41.96 42.41 43.82 46.55 47.09 46.58 45.84 45.00 43.92 42.69 41.90 40.55 39.52 38.71
34.20 23.33 27.87 24.32 28.98 29.18 27.91 31.06 32.66 33.82 34.47 33.85 32.51 29.18 34.14 36.34 32.20 33.70 35.45 36.66 37.85 38.35 38.45 37.70 36.85 36.95 37.89 38.80 39.36 39.28 40.36 41.43 42.88 43.51 44.14 42.21 41.78 40.02 38.91 37.59 36.62 35.97 35.88 35.91
31.49 27.90 24.77 18.48 27.77 26.72 25.27 29.80 31.58 33.33 35.04 35.08 29.10 34.59 35.96 34.70 34.35 35.48 36.25 36.00 35.87 36.87 38.17 38.02 38.51 38.78 37.90 38.89 39.75 38.95 38.66 40.24 41.42 40.91 38.50 37.78 38.11 37.29 36.69 35.81 35.43 34.69 34.57 33.15
32.93 32.43 27.81 22.83 24.78 18.49 30.29 32.57 35.91 33.70 35.17 36.68 37.06 33.86 35.26 35.85 38.48 38.47 37.21 36.52 35.85 36.14 37.74 37.76 37.45 37.92 38.03 37.86 38.13 37.84 38.63 38.43 38.81 40.69 38.38 37.12 36.79 35.77 34.65 34.26 33.62 32.34 28.74 29.71
35.44 32.00 25.60 24.95 16.21 26.87 31.50 30.87 29.27 29.40 32.24 36.18 35.18 36.60 34.47 33.63 32.68 34.29 35.35 35.93 38.49 38.82 38.66 38.56 38.63 37.83 36.85 37.42 37.54 37.79 36.05 36.32 37.07 39.03 37.00 35.17 35.33 34.13 33.15 33.39 31.67 25.96 28.12 26.67
33.52 35.07 30.98 24.72 20.06 20.98 27.75 33.25 32.97 33.86 28.57 36.19 36.32 35.79 35.32 33.06 32.34 38.71 37.88 37.57 36.55 36.78 36.40 36.28 35.43 36.24 36.31 36.30 35.72 35.82 35.48 35.58 35.93 34.63 34.71 32.85 32.10 33.09 31.87 29.99 28.11 24.29 25.57 26.43
29.66 30.80 28.20 27.04 25.23 22.87 29.56 30.68 35.74 27.48 30.27 35.18 33.95 36.45 36.90 33.99 38.29 36.76 35.76 34.50 33.76 34.69 34.76 34.17 34.76 35.67 35.99 33.94 34.66 34.90 33.43 35.30 34.99 33.14 31.16 29.15 28.59 30.03 28.99 26.30 23.32 25.79 26.03 25.74
29.14 28.43 28.44 27.53 25.01 23.14 30.77 29.35 31.63 34.63 33.19 33.77 34.12 32.66 33.50 32.48 32.73 33.76 34.92 34.43 35.32 34.58 34.18 33.93 33.41 33.00 31.95 32.48 34.58 33.85 33.91 32.46 30.91 29.06 28.22 26.85 25.61 27.47 27.60 26.79 24.84 24.51 25.40 24.28
27.60 31.20 27.75 30.89 29.21 32.56 30.59 30.96 32.96 34.09 35.04 34.27 35.08 35.27 34.53 34.04 32.03 32.57 33.68 32.75 32.55 32.10 32.11 30.88 30.87 29.96 28.79 30.56 29.82 29.06 28.51 28.71 26.93 26.52 24.68 23.51 24.12 25.70 26.46 26.57 25.23 24.43 23.62 24.99
29.30 30.70 29.36 30.36 30.79 31.72 31.79 32.91 33.40 33.11 33.52 34.17 33.42 33.82 33.45 33.97 32.94 31.75 31.81 31.36 30.05 29.01 28.36 26.50 24.88 24.73 24.18 23.10 26.09 26.25 26.75 26.20 27.27 24.94 23.24 22.76 24.05 22.28 21.84 24.07 25.28 25.39 24.51 25.56
30.44 31.94 27.08 27.35 28.20 30.82 31.62 32.91 33.49 32.00 32.54 32.28 31.61 31.43 31.81 32.08 30.12 30.39 30.17 29.29 28.43 27.20 23.75 22.98 23.52 22.99 20.65 20.38 20.49 20.25 23.12 25.11 24.10 22.44 21.85 21.76 22.52 23.36 21.16 21.64 24.21 27.08 26.28 28.56
29.48 29.78 31.99 32.15 31.67 33.08 32.50 32.34 32.11 31.53 29.79 30.68 31.11 29.55 28.85 30.37 30.30 29.05 28.36 27.60 25.97 22.53 20.75 20.64 19.04 19.91 16.90 16.70 16.35 16.18 17.88 22.65 23.52 21.63 21.95 22.64 22.90 21.65 22.30 24.22 24.03 27.46 27.26 28.52

GFSCGP_sfc_wetblb_141.txt.gz
Wetbulb
40.42 37.87 35.40 36.92 40.37 39.38 38.29 35.76 33.55 35.49 39.50 37.82 36.32 36.22 40.02 40.31 38.49 39.21 39.92 40.88 45.96 51.85 56.01 57.28 58.31 59.28 60.03 60.45 61.04 61.64 61.98 62.76 62.43 61.83 61.31 61.13 61.15 62.11 62.77 63.00 62.51 61.69 60.66 59.05
36.80 35.24 37.10 39.58 37.95 37.04 34.42 33.30 32.62 35.01 36.01 36.13 34.86 34.95 38.66 38.26 39.14 39.47 40.08 39.96 41.37 43.83 47.42 51.34 54.50 57.40 58.77 60.29 60.54 60.71 61.43 62.12 62.34 62.42 62.45 62.10 62.01 62.27 62.96 63.34 62.92 62.21 61.23 59.94
35.19 35.90 38.86 37.37 34.40 33.73 31.98 31.46 31.72 33.68 33.99 34.35 33.11 32.82 35.39 38.77 37.98 39.09 39.51 40.76 41.07 42.69 44.50 45.86 46.70 51.32 56.70 58.38 59.78 60.62 61.12 61.62 62.12 62.66 62.08 60.06 60.98 61.02 61.29 61.55 62.25 62.37 62.08 61.04
35.90 37.12 36.17 34.16 32.95 34.29 29.60 34.85 34.37 33.19 31.63 28.29 32.16 26.31 32.76 36.14 36.65 36.57 39.53 39.63 41.20 42.03 43.23 44.10 43.81 43.72 47.90 54.54 58.64 60.05 61.21 61.37 61.57 62.43 61.39 61.03 60.84 60.05 61.27 61.67 62.00 61.38 61.77 61.35
33.38 32.76 32.85 33.59 33.86 36.03 33.35 35.01 33.66 32.44 29.85 27.26 26.90 26.17 29.72 32.61 32.85 35.84 38.27 39.29 41.62 43.96 44.77 43.71 42.91 43.70 42.80 44.71 51.81 57.45 59.27 60.73 61.33 61.67 61.98 61.28 60.99 61.66 61.83 59.54 60.11 60.52 60.29 60.67
33.78 35.39 36.86 35.96 35.07 37.22 35.18 32.94 31.51 28.44 28.02 23.73 27.65 28.29 27.33 31.48 35.03 37.43 39.32 39.50 42.20 42.86 40.54 40.73 40.68 40.78 41.31 41.52 44.03 51.52 56.55 58.58 60.06 60.83 61.41 61.08 60.99 60.81 59.04 58.87 58.99 59.36 59.80 59.85
30.19 30.46 32.53 34.76 31.75 32.98 33.33 32.21 24.90 23.08 22.13 22.84 25.72 24.75 31.96 35.08 36.84 37.26 39.64 40.08 38.63 38.65 39.03 38.67 38.51 38.70 39.13 40.35 41.14 46.70 53.53 56.08 58.69 59.77 60.30 60.78 60.77 60.61 59.55 59.44 59.01 58.42 59.03 59.30
29.28 26.44 31.38 33.94 32.91 30.39 32.04 31.77 25.20 18.74 18.54 22.46 25.43 24.67 30.90 35.68 37.41 37.19 37.78 37.41 37.33 37.59 39.70 40.09 39.40 38.52 40.22 41.40 42.53 44.44 49.94 54.12 57.66 58.95 59.74 60.74 60.91 60.59 60.50 60.49 59.23 59.10 59.48 60.00
29.39 28.09 32.42 34.66 35.83 37.26 30.87 28.93 33.33 24.77 13.37 19.18 24.24 27.47 32.57 35.76 36.69 34.77 35.83 35.75 37.60 37.48 38.10 39.97 40.18 40.45 42.19 43.40 44.28 44.74 45.59 49.47 52.95 56.56 58.50 59.31 60.05 60.38 60.26 59.65 59.47 59.69 59.54 58.42
32.14 27.76 31.98 33.95 36.75 35.92 34.14 36.04 29.18 26.79 17.21 16.12 22.27 24.03 27.97 32.38 34.47 34.25 35.70 35.43 36.25 36.68 37.46 39.15 40.08 41.41 43.41 44.70 45.43 45.91 45.69 45.53 45.98 47.31 49.16 50.79 52.22 54.39 57.79 58.57 58.26 58.61 58.38 56.47
33.38 31.09 28.87 33.33 32.18 30.62 30.83 30.50 29.02 31.14 27.50 20.73 16.59 24.66 30.34 33.53 33.33 34.07 34.58 34.93 36.48 36.51 37.13 38.73 39.96 41.70 42.76 44.25 45.61 46.04 46.33 46.38 46.49 45.98 45.21 44.01 43.84 43.77 46.89 54.47 56.51 56.23 54.85 54.76
33.67 31.02 25.94 28.42 32.45 34.01 34.17 33.03 34.22 29.30 22.30 23.10 22.58 25.44 32.73 32.78 33.51 33.37 33.93 35.55 35.31 35.91 36.82 38.04 39.78 40.63 41.22 43.43 45.30 46.04 46.12 46.61 46.59 47.02 46.98 48.55 48.81 49.00 47.12 50.29 52.75 52.90 53.60 52.57
35.12 29.06 22.60 26.93 31.09 31.41 31.19 30.72 34.03 29.60 27.79 22.21 22.00 28.55 32.71 31.03 32.98 33.53 34.10 34.93 35.74 35.08 36.67 37.42 38.24 39.67 40.71 41.97 43.91 44.92 45.26 45.89 46.36 46.51 48.55 48.99 49.53 50.23 50.84 51.38 50.73 49.95 49.04 47.89
40.06 30.84 29.99 26.02 27.86 30.57 29.42 30.90 31.38 32.53 25.39 26.78 28.91 31.25 30.28 34.25 34.58 34.88 35.69 36.16 36.73 35.59 36.09 36.65 37.76 38.63 39.47 40.40 41.70 43.17 43.86 44.76 45.45 47.72 48.81 48.99 49.22 49.67 49.15 48.27 47.53 46.91 46.71 45.90
36.65 32.20 28.56 28.16 29.61 32.02 30.57 30.84 31.80 31.91 34.00 28.59 32.69 30.94 33.35 34.79 35.26 34.42 35.15 36.72 37.15 36.14 34.90 34.94 36.40 37.72 38.50 39.05 39.63 41.07 42.91 43.10 45.52 47.40 47.97 48.07 47.65 46.93 45.93 44.83 44.09 43.24 43.12 42.49
34.46 25.31 28.38 25.68 29.36 28.66 26.76 31.60 33.22 33.46 34.14 34.19 34.01 29.35 33.17 38.27 33.05 33.13 35.36 36.55 37.88 38.14 37.07 36.14 35.77 36.70 37.87 38.72 39.33 39.37 41.03 42.47 44.46 46.30 46.32 45.40 44.31 42.58 41.81 40.58 39.14 38.75 37.91 37.83
32.48 27.67 24.40 26.19 28.04 28.13 23.64 29.93 31.21 33.09 34.93 34.99 30.87 34.86 34.99 34.18 34.87 35.91 37.34 37.06 36.89 37.27 37.76 37.47 37.66 37.83 37.76 39.20 39.62 39.94 40.25 41.51 42.71 44.46 42.86 41.19 40.34 39.04 38.39 37.61 37.07 36.61 36.48 35.93
33.45 31.74 27.29 21.62 23.50 19.51 31.95 34.82 35.58 33.32 35.14 36.45 37.01 33.86 34.67 36.08 37.34 37.28 36.52 37.34 36.27 35.36 36.75 37.26 37.86 38.24 38.64 38.27 38.82 38.99 39.53 40.66 40.77 39.50 39.29 38.73 38.64 38.15 37.03 36.63 36.39 35.16 35.05 34.94
34.69 32.10 24.98 21.69 12.64 24.62 30.77 29.32 28.56 28.95 32.23 35.66 35.40 37.43 34.40 33.53 32.00 35.28 36.24 36.19 38.30 38.97 38.61 37.75 37.52 37.34 37.19 37.98 38.24 38.00 37.02 37.99 39.38 38.78 38.44 37.95 37.76 36.22 35.73 35.20 34.82 32.99 32.86 31.96
32.71 34.31 30.61 15.76 22.87 18.87 27.26 34.01 31.94 33.69 27.21 35.12 36.07 36.24 35.05 33.63 33.18 38.38 40.09 38.40 37.16 36.16 35.75 35.69 34.99 35.99 36.36 36.35 36.17 35.88 35.95 36.65 38.89 40.65 39.30 37.50 36.50 36.21 35.36 35.25 33.38 31.30 32.19 31.34
27.39 26.52 27.25 17.33 24.69 22.98 29.26 29.68 34.96 25.61 27.88 34.82 34.09 35.56 35.22 33.92 39.55 36.57 35.73 34.42 34.57 34.69 33.81 33.80 33.72 34.59 34.43 34.23 34.13 34.94 34.61 36.23 37.86 38.09 35.43 34.35 33.58 35.11 35.40 33.14 30.27 30.57 29.65 27.97
28.41 28.08 26.95 24.99 23.50 22.63 29.82 29.83 30.40 35.13 35.75 34.19 33.66 33.64 32.67 32.58 32.10 33.40 33.29 34.35 34.05 33.24 33.48 32.90 33.20 32.52 31.75 33.14 33.72 33.74 33.59 33.57 32.58 32.48 33.17 33.39 32.94 32.22 32.27 32.33 29.75 28.18 27.27 25.89
25.17 30.24 26.22 30.47 29.45 32.08 29.80 33.02 32.75 33.90 34.56 34.00 34.82 34.57 31.61 33.13 32.72 32.84 32.57 31.97 31.99 31.37 31.62 30.67 30.84 30.93 29.44 30.53 30.56 30.18 30.50 30.37 28.71 29.98 29.29 29.48 29.23 30.73 30.12 29.22 26.66 26.47 26.71 26.66
28.42 31.33 28.30 29.17 30.70 31.23 31.55 32.75 33.47 33.75 33.87 34.47 34.59 34.61 34.46 33.80 32.02 31.80 31.75 30.95 30.12 29.11 28.56 26.61 25.70 25.36 24.73 23.57 25.62 27.08 27.62 26.65 27.27 25.89 24.99 25.07 26.25 24.74 24.97 27.93 28.30 27.65 26.88 26.30
30.36 31.61 24.96 24.47 28.15 31.23 31.64 33.01 33.68 32.56 32.88 32.04 31.40 32.03 32.98 32.53 30.33 30.40 29.89 28.98 28.27 27.28 24.30 23.89 24.49 23.65 21.73 20.94 21.03 20.75 23.24 26.05 26.07 24.82 23.66 24.27 24.93 25.48 24.17 25.31 27.02 27.85 25.61 29.27
28.66 28.65 30.72 29.32 32.41 33.60 33.44 32.94 32.76 31.79 31.40 31.18 30.53 28.88 28.49 30.60 30.09 28.53 27.69 26.65 25.08 23.15 20.98 21.94 20.61 19.96 18.78 18.96 18.86 18.61 18.33 22.56 24.15 22.89 23.01 23.95 23.97 23.01 24.14 24.76 22.98 28.63 28.57 30.14

GFSCGP_sfc_wetblb_144.txt.gz
Wetbulb
46.48 44.10 41.13 41.75 44.05 45.23 43.83 39.67 41.64 42.12 44.43 42.88 44.14 44.92 47.93 50.11 45.81 46.25 48.90 49.86 52.57 55.52 58.84 61.18 62.24 63.27 63.99 64.73 65.09 65.36 65.01 65.40 64.97 64.29 63.43 62.58 62.09 64.01 64.79 65.42 65.74 65.26 64.15 60.84
41.83 41.89 46.85 47.00 45.11 40.48 38.47 36.77 39.87 42.04 41.26 41.90 43.92 41.74 45.74 47.12 46.92 47.05 47.58 48.77 49.97 52.23 55.57 58.68 60.71 61.89 62.43 63.42 64.36 64.80 64.96 65.32 65.32 64.95 64.70 64.19 64.24 64.83 65.00 65.52 65.33 65.21 63.95 61.91
41.92 43.84 44.43 43.14 41.87 39.71 36.44 37.12 37.77 40.60 39.72 41.04 40.06 40.51 42.31 44.55 45.79 45.99 46.28 47.80 48.81 49.41 50.46 52.83 57.11 60.13 62.14 62.68 63.59 64.00 64.81 65.26 65.47 65.10 65.08 64.93 64.95 64.82 64.07 64.56 64.66 65.17 64.68 63.92
42.82 43.46 41.19 41.40 40.39 42.69 37.32 40.30 40.99 38.47 37.97 36.84 38.96 36.93 42.39 42.81 43.83 43.48 45.58 46.75 47.23 48.02 47.61 49.02 51.71 55.94 60.11 62.17 64.11 64.25 64.26 64.54 65.27 65.78 65.01 63.88 62.65 61.96 63.35 64.06 64.57 65.15 65.23 64.50
40.10 37.95 39.11 38.62 40.41 42.32 41.03 40.80 39.82 38.69 37.82 35.96 37.40 34.81 40.62 40.28 40.56 43.16 45.75 46.80 48.35 48.95 49.57 49.36 49.77 51.83 55.11 59.73 62.55 63.67 63.64 64.06 64.68 65.13 64.84 64.23 63.16 64.17 64.68 64.72 64.23 64.53 64.41 64.32
37.78 41.25 42.07 42.48 42.31 43.00 39.50 38.78 37.89 37.20 37.24 31.99 37.81 35.60 38.17 40.82 42.33 44.64 46.56 47.53 48.06 49.05 50.06 49.88 50.08 50.42 50.63 52.48 54.95 60.30 61.70 62.66 64.01 63.69 64.10 63.98 63.34 63.49 63.44 63.58 63.02 63.57 63.70 63.50
35.49 36.71 38.34 40.72 37.88 39.66 39.80 38.42 30.33 29.47 30.52 30.02 32.93 32.40 38.17 42.01 43.63 43.78 45.25 47.02 47.97 47.80 48.51 47.55 47.07 47.29 48.12 48.71 49.33 51.05 56.28 58.92 61.49 62.67 63.25 63.96 63.80 63.67 63.48 63.19 62.67 62.51 62.43 62.44
34.53 31.04 36.20 39.56 40.18 37.12 38.51 39.51 33.38 26.10 26.65 32.16 30.69 31.01 37.54 42.75 44.95 45.99 44.67 45.61 45.34 44.67 45.82 46.84 47.47 46.67 46.44 46.78 47.54 47.93 50.03 53.49 57.60 59.96 61.31 62.59 63.58 63.34 63.48 62.91 62.88 62.69 62.71 63.40
35.56 33.14 37.47 37.97 38.68 40.83 37.41 35.00 40.07 30.29 23.79 29.39 34.26 36.22 39.47 42.01 42.33 42.73 43.36 43.48 44.43 45.88 45.73 45.96 46.86 46.35 46.02 46.68 47.18 47.65 48.29 52.01 56.04 58.40 59.69 60.43 61.58 61.56 61.73 62.27 62.71 62.48 62.54 62.27
38.35 30.73 35.91 36.75 39.86 38.36 39.01 40.35 32.49 33.78 26.07 25.66 32.24 31.74 36.16 39.39 41.01 42.35 42.13 43.52 44.99 45.47 46.25 45.72 46.76 46.99 47.70 48.40 48.92 49.17 49.02 50.23 54.58 57.42 58.28 58.61 59.35 60.23 61.10 61.44 61.16 61.20 61.32 60.72
41.40 36.44 32.07 36.01 35.13 35.32 35.35 34.85 35.86 37.64 34.00 29.51 28.06 34.72 40.87 42.14 41.17 41.89 42.73 43.23 42.99 45.24 45.04 45.43 46.90 47.48 48.79 49.90 50.42 50.70 50.30 49.66 49.46 52.13 55.16 54.01 53.87 54.48 56.53 58.71 60.46 60.17 59.63 59.78
39.44 35.31 30.31 32.94 37.30 38.81 40.29 37.31 37.43 32.32 28.61 30.64 29.04 34.32 39.20 41.43 42.59 40.42 42.22 42.09 42.59 43.26 44.13 45.94 46.66 47.19 47.91 49.73 50.51 50.92 50.95 50.49 50.60 50.10 49.57 49.06 49.19 49.03 49.49 53.26 57.52 59.01 58.00 56.08
38.53 34.34 28.73 29.76 34.72 35.84 35.72 36.26 38.79 37.77 34.20 30.46 30.77 35.72 38.59 38.87 39.13 41.79 41.67 42.69 42.32 43.04 43.51 44.52 45.36 46.44 47.56 48.76 50.10 50.71 50.95 51.42 51.09 50.80 50.60 50.70 50.87 50.63 50.53 50.09 52.87 56.04 55.34 54.77
41.07 34.16 33.63 28.82 31.87 34.58 32.00 34.93 36.65 36.38 33.01 32.15 32.84 37.03 37.92 38.84 40.00 41.07 42.58 43.32 43.22 42.55 43.52 44.69 45.18 46.14 47.05 47.64 48.95 50.25 50.77 51.51 50.82 50.89 50.93 50.70 51.40 51.97 52.26 52.72 53.18 52.42 52.42 51.36
39.38 32.96 33.42 33.45 35.71 35.95 34.15 33.09 33.32 32.85 35.42 32.75 36.38 36.50 39.35 41.71 41.36 42.36 42.69 42.90 42.44 41.80 41.21 42.83 44.55 45.96 46.43 46.58 47.11 48.76 50.26 49.88 49.90 49.63 49.74 49.95 50.92 51.62 51.21 50.46 49.60 48.06 47.17 47.03
37.02 34.60 34.45 29.11 32.46 33.87 32.54 34.82 35.04 35.31 36.40 36.48 37.10 36.67 39.68 43.36 42.79 41.50 41.94 42.18 41.99 42.65 42.28 42.01 42.23 43.80 44.77 45.38 46.66 46.75 48.48 48.88 48.79 49.23 49.19 50.18 49.65 47.93 46.85 45.11 42.37 41.83 41.48 41.34
35.68 32.88 31.82 29.81 31.89 32.89 30.21 32.99 35.63 36.67 38.16 37.83 33.73 38.93 40.58 39.09 39.80 42.44 43.47 41.50 41.94 43.22 43.77 43.62 43.12 43.52 44.75 45.46 45.68 46.04 47.16 48.26 46.81 48.20 48.86 48.45 47.48 43.88 41.87 40.91 39.84 39.08 39.00 38.61
33.46 33.56 33.91 28.05 30.34 23.63 34.89 40.74 39.42 37.50 38.96 39.85 39.76 40.15 41.52 41.98 42.92 44.05 45.75 44.83 43.71 41.66 43.01 43.44 44.72 45.14 45.19 44.59 45.17 46.04 45.74 46.04 46.05 45.21 45.44 44.94 43.70 42.14 39.84 38.82 38.29 37.04 36.84 36.90
39.77 35.34 29.91 27.72 27.99 32.23 34.73 34.53 36.05 34.96 35.69 40.26 39.43 40.58 41.56 39.90 40.52 42.13 43.10 44.71 44.66 45.19 45.94 45.01 45.30 44.87 44.97 44.75 44.45 43.90 42.93 43.78 44.49 42.90 43.10 42.93 41.85 38.47 37.38 36.42 36.32 35.79 35.90 35.46
36.40 38.41 35.04 26.89 26.42 23.20 33.57 36.13 37.55 38.62 30.61 41.38 40.44 40.17 40.11 39.34 36.57 41.49 46.23 45.34 45.22 45.45 41.85 41.83 42.35 42.04 42.22 43.10 42.79 41.04 41.38 41.81 42.47 43.67 42.51 41.55 38.27 37.42 36.84 37.04 36.28 35.41 35.68 34.77
30.92 32.02 29.37 28.66 28.89 31.79 35.38 36.03 40.05 29.95 32.93 41.41 40.53 41.00 40.32 37.87 42.41 44.83 43.01 40.64 40.10 40.17 39.95 39.31 39.31 39.71 40.22 39.17 39.38 39.44 40.45 40.07 42.50 42.53 40.18 38.58 38.00 37.40 38.58 37.35 35.35 34.28 33.34 32.56
30.37 29.82 29.61 31.29 28.04 25.11 35.11 34.64 34.96 39.18 40.38 38.84 38.71 38.83 39.09 40.72 40.47 39.56 39.33 38.86 39.04 38.38 37.83 36.48 37.67 36.33 35.76 36.97 37.27 37.83 38.18 39.05 38.85 39.63 38.42 37.47 37.02 36.88 35.86 34.75 33.30 32.92 32.74 32.54
30.41 35.05 32.53 33.36 33.36 36.27 35.74 38.73 38.89 38.92 39.61 38.83 39.77 38.97 37.71 37.08 37.69 38.57 37.96 37.22 35.92 35.30 33.89 33.22 33.95 34.39 32.72 32.95 34.27 35.15 36.02 35.50 35.22 35.66 35.66 34.93 34.54 34.34 34.26 33.88 32.49 31.91 32.34 32.35
33.36 35.62 35.09 35.14 35.95 36.77 37.24 36.91 37.58 38.94 39.23 38.86 40.28 40.18 38.74 38.51 37.36 34.87 34.58 33.76 33.17 31.44 31.22 30.30 31.92 31.36 29.99 29.00 29.68 31.67 32.70 32.55 32.73 33.52 33.67 33.45 33.77 32.84 32.89 33.44 33.20 32.76 32.07 32.10
35.83 34.83 33.00 32.52 32.46 35.85 37.71 37.64 38.27 36.63 36.21 35.39 34.73 35.42 36.78 36.63 34.13 33.69 32.48 31.38 30.36 28.76 27.81 28.18 29.22 28.37 26.38 27.28 27.21 27.24 28.86 30.96 32.18 31.82 30.93 31.91 32.29 32.57 31.42 32.16 32.82 33.03 34.33 34.97
32.50 32.23 33.96 33.97 36.42 37.62 37.26 36.65 36.49 35.37 34.51 34.45 33.77 32.13 30.89 33.56 32.09 31.19 29.07 27.97 27.29 27.08 27.09 27.04 25.78 25.96 24.84 25.75 24.58 24.48 25.70 29.65 31.08 30.72 30.79 31.75 31.93 31.67 31.97 31.43 30.72 30.17 31.77 31.33

GFSCGP_sfc_wetblb_147.txt.gz
Wetbulb
45.89 41.24 39.31 42.48 47.44 50.16 48.63 47.68 46.67 48.75 47.79 44.73 45.77 47.14 49.48 52.71 52.20 49.34 50.35 51.49 52.50 54.90 58.08 60.81 62.31 63.35 63.54 64.10 64.59 65.65 65.57 65.89 65.79 65.43 64.33 63.94 61.85 62.99 64.44 65.73 65.73 65.74 65.21 64.00
42.60 39.73 45.45 45.56 46.54 45.71 47.55 46.09 45.94 48.34 45.09 43.30 45.24 45.50 48.95 50.39 51.21 52.54 52.09 50.51 51.50 52.76 55.36 58.21 61.00 62.47 63.00 63.22 64.35 65.13 65.67 66.07 65.96 66.04 65.73 65.39 63.67 64.69 64.99 65.63 65.87 65.98 65.57 64.35
41.36 45.79 50.42 45.99 44.60 43.53 45.66 43.43 44.59 43.95 43.11 43.84 43.19 42.31 45.71 48.63 49.43 51.14 52.43 53.17 51.53 51.76 52.67 56.06 59.20 60.86 62.66 62.81 63.85 64.47 65.58 66.03 66.37 66.36 65.93 65.53 65.09 64.86 64.73 64.46 65.03 65.34 65.45 64.95
44.06 48.78 47.36 46.19 44.22 45.49 42.00 45.83 46.90 43.08 41.08 40.22 43.00 38.52 46.94 48.21 47.44 47.20 48.75 50.12 50.80 50.43 50.94 53.18 57.11 59.90 61.67 62.57 64.18 64.64 65.06 65.66 66.17 66.76 65.38 64.32 63.12 62.54 64.18 64.78 65.27 65.43 65.42 64.94
42.64 44.88 43.63 43.35 44.82 47.18 44.68 47.13 44.82 43.63 39.96 39.85 40.94 36.29 43.62 47.73 44.45 46.13 47.95 48.86 50.75 50.93 50.78 49.77 52.37 56.57 60.97 62.75 63.98 64.94 64.92 65.03 65.71 66.26 65.86 65.07 64.31 64.73 65.13 64.91 64.95 65.03 65.52 65.50
42.46 46.32 44.63 45.54 47.84 47.89 44.73 42.26 41.46 40.41 40.08 33.54 39.75 39.59 40.07 43.35 45.21 46.72 48.37 49.38 50.69 51.85 51.72 52.23 52.89 53.33 55.55 59.91 62.57 64.32 64.17 64.00 65.17 65.74 65.89 65.13 64.74 64.34 64.19 64.33 63.86 64.52 64.99 64.84
37.99 40.13 43.59 44.93 43.25 45.26 43.21 39.62 33.03 30.34 31.20 31.64 38.05 37.55 41.16 45.25 47.65 47.45 47.53 48.78 50.13 52.34 52.54 52.73 52.85 51.16 52.68 53.79 55.54 59.26 62.46 62.56 63.96 64.43 64.42 64.87 65.13 64.85 64.18 64.13 64.05 63.80 63.45 63.49
34.44 30.77 38.19 42.52 43.01 40.19 39.75 41.76 34.69 27.86 30.02 33.99 34.23 32.65 39.62 45.70 47.54 48.35 48.38 48.03 48.17 47.91 50.09 51.04 52.39 52.19 51.68 51.65 52.37 52.94 54.09 58.24 61.38 63.08 63.71 64.30 64.78 64.48 64.31 64.39 64.18 63.72 63.34 63.46
35.67 35.62 40.95 42.02 43.84 43.10 38.80 37.41 44.70 33.77 27.98 30.72 35.86 38.88 42.91 44.64 43.97 44.85 45.30 46.13 46.86 47.90 48.39 48.20 49.87 50.64 50.16 50.03 50.15 51.16 51.04 51.40 55.17 58.87 61.17 62.04 62.74 63.33 63.26 63.86 64.26 63.47 63.46 62.99
42.04 32.67 37.78 38.94 41.16 43.09 41.80 44.20 34.99 35.75 28.14 26.21 35.63 35.75 37.28 41.24 42.69 44.65 45.40 45.59 46.81 48.25 48.62 49.04 48.89 49.64 49.77 50.15 50.25 50.05 50.10 49.94 52.76 55.96 58.66 59.67 60.94 61.88 62.57 62.58 61.78 61.95 62.44 62.30
44.00 37.81 32.71 35.84 35.65 36.31 36.18 37.54 38.85 39.31 36.69 30.99 29.96 35.52 43.43 43.63 43.77 43.51 44.37 45.37 46.44 46.12 47.38 48.69 48.85 49.73 50.21 51.04 51.11 50.92 50.44 50.33 52.56 55.88 57.89 58.63 59.54 59.87 60.42 59.88 60.24 60.48 60.76 61.63
43.43 38.47 29.97 32.17 38.97 39.82 40.61 38.96 39.21 33.62 30.89 33.24 30.18 34.61 41.86 43.85 44.54 43.35 44.18 44.66 44.81 45.38 46.77 47.20 48.62 49.33 49.93 50.84 51.50 51.74 51.79 51.48 52.13 53.88 56.09 56.76 57.33 56.62 56.69 57.37 59.47 60.04 60.48 60.06
40.67 36.28 29.95 30.34 35.94 37.48 36.81 39.43 40.52 40.37 35.67 31.95 31.88 36.86 40.65 42.09 42.37 42.73 43.08 45.14 44.79 45.00 45.40 46.82 48.06 48.49 49.33 50.76 51.60 52.02 52.17 51.95 52.14 52.02 52.48 53.22 54.16 53.94 53.12 53.89 56.64 58.56 58.26 56.77
42.43 36.53 35.29 29.21 33.29 36.68 33.17 37.42 39.51 39.14 34.02 34.51 34.72 39.00 40.44 41.23 41.89 43.36 43.63 45.32 45.53 44.67 45.41 46.34 47.09 48.07 49.21 50.03 51.06 51.81 52.05 52.89 52.25 51.99 51.68 51.38 51.63 51.71 51.92 51.71 51.57 54.89 55.71 55.21
40.71 33.72 35.30 37.77 37.96 37.44 34.70 34.78 35.80 35.54 37.83 34.09 36.88 37.09 40.98 43.41 42.85 43.48 44.80 45.26 44.58 44.03 43.94 45.75 46.92 48.11 48.79 48.98 49.59 51.16 52.15 52.48 52.45 51.96 51.74 51.66 52.47 52.74 52.84 52.39 52.66 51.81 51.14 51.09
40.17 34.38 34.61 30.92 35.00 35.86 32.62 35.82 36.38 36.68 37.81 38.42 38.67 38.41 44.49 44.00 45.49 45.15 44.44 43.98 43.87 45.18 45.18 45.11 45.40 46.67 47.67 48.23 48.92 49.53 50.99 51.58 51.68 51.39 51.14 51.64 51.57 51.18 50.89 50.15 47.51 44.40 43.40 44.02
36.90 34.74 33.10 30.36 33.41 33.70 29.83 33.78 35.87 37.06 39.07 38.67 34.94 39.69 44.03 43.45 42.31 43.76 44.97 44.11 43.33 44.64 45.88 46.51 45.99 45.43 46.33 47.88 48.33 48.60 49.80 51.04 50.09 50.19 50.07 50.00 49.74 46.08 45.21 43.60 42.46 41.59 41.28 40.36
34.62 34.30 34.09 31.05 32.21 23.61 35.09 41.59 40.49 38.16 39.31 40.54 40.54 41.76 43.60 44.34 45.16 45.56 46.52 45.83 45.73 44.50 44.09 45.44 46.82 47.76 47.40 47.58 47.66 48.51 49.00 49.05 48.08 47.40 46.06 45.53 45.06 43.64 42.02 40.81 39.79 38.12 37.42 36.98
39.44 35.86 31.80 29.05 29.23 33.30 36.68 38.44 38.61 37.10 36.87 42.37 41.26 42.38 43.41 44.03 42.70 43.19 45.45 45.83 45.94 46.62 46.96 46.46 48.64 48.42 48.27 46.90 46.80 46.41 45.14 44.88 44.64 44.19 43.73 43.78 43.27 39.56 38.01 37.00 36.91 34.84 35.66 34.59
38.71 39.68 34.24 31.11 28.14 25.25 35.13 40.09 41.33 42.33 31.98 42.74 43.14 42.81 43.08 42.37 37.30 41.62 45.84 45.93 45.93 46.59 46.49 44.50 45.89 45.45 45.14 45.76 45.55 42.63 42.22 42.42 43.19 43.51 42.13 42.44 38.20 38.23 37.49 36.93 35.72 33.67 34.07 34.34
31.78 33.51 30.95 31.55 30.01 33.37 37.16 38.07 41.75 29.68 32.87 40.67 42.07 42.97 42.68 40.13 42.67 45.27 43.99 43.30 40.62 40.27 40.82 41.31 41.68 42.03 42.32 39.57 40.41 40.27 41.01 41.11 41.98 41.98 40.07 38.07 38.11 37.76 38.31 36.31 33.76 34.29 33.60 33.25
31.24 30.80 30.67 32.60 29.53 26.73 38.05 37.94 35.11 39.83 42.49 40.04 38.81 41.13 41.25 43.13 43.55 41.72 41.44 40.32 39.88 39.48 38.62 37.25 38.13 36.65 36.44 37.24 37.19 37.72 38.62 38.89 39.76 38.88 37.86 37.14 36.31 35.84 35.93 35.17 33.96 33.54 33.75 33.50
31.37 35.71 33.20 33.97 34.34 37.83 39.45 39.61 41.68 41.55 41.90 39.80 41.66 39.99 41.45 40.68 39.65 39.74 39.80 39.33 37.10 35.89 34.46 34.55 35.19 34.60 33.54 33.46 34.20 35.15 36.43 36.08 34.77 35.30 34.90 34.62 34.38 34.21 34.65 34.46 33.47 33.56 33.57 33.96
36.59 39.85 36.43 34.99 38.55 39.26 39.51 39.77 39.26 40.86 40.99 40.85 41.32 40.82 39.23 38.86 37.93 35.26 35.25 34.38 33.85 32.22 31.70 32.35 33.40 31.95 30.29 30.51 30.47 30.71 32.21 32.49 32.42 33.46 33.49 33.38 33.76 33.36 33.47 34.09 34.15 34.21 33.48 32.93
37.27 37.58 35.01 35.22 34.35 37.46 39.01 40.88 42.02 38.51 38.16 37.24 36.14 36.62 38.17 37.48 35.08 34.78 33.02 31.69 31.06 29.98 29.69 29.69 29.53 28.47 27.42 28.35 27.40 27.31 29.08 31.63 32.47 32.58 31.41 32.50 32.70 33.12 32.43 31.98 33.58 33.19 33.58 35.22
33.69 33.88 34.66 34.16 36.57 39.48 39.55 41.92 40.23 37.51 36.70 37.55 35.51 33.32 33.16 35.77 33.57 32.20 29.63 28.92 28.61 27.27 27.58 26.99 25.97 26.15 26.03 25.61 23.84 24.12 26.34 30.21 32.02 30.73 30.65 31.30 31.05 30.69 30.63 30.89 29.70 31.36 33.12 34.21